Location: Boussac
(44.2782°N, 2.3665°E)
Time: 20:46:15
(UTC+00:00)

USA 186 - Pass Details

Date: 15 May 2026
Orbit: 338 x 359 km, 97.0° (Epoch: 19 May)

Event Time Altitude Azimuth Distance (km) Brightness Sun altitude
Exits shadow 21:12:57 25° 227° (SW) 736 2.9 -17.6°
Maximum altitude 21:13:47 30° 262° (W) 637 2.9 -17.7°
Drops below altitude 10° 21:16:17 10° 327° (NNW) 1,291 5.5 -17.9°
Sets 21:18:20 0° 339° (NNW) 2,138 6.8 -18.2°
